Location: Newark
(34.6283°N, 36.0776°E)
Time: 22:37:49
(UTC+00:00)

SR - Pass Details

Date: 21 October 2019
Orbit: 574 x 882 km, 66.7° (Epoch: 11 November)

Event Time Altitude Azimuth Distance (km) Brightness Sun altitude
Rises 02:56:49 0° 351° (N) 3,457 ? -10.8°
Reaches altitude 10° 03:00:47 10° 17° (NNE) 2,539 ? -10.0°
Maximum altitude 03:03:36 14° 46° (NE) 2,297 ? -9.4°
Drops below altitude 10° 03:06:25 10° 75° (ENE) 2,535 ? -8.8°
Sets 03:10:21 0° 100° (E) 3,448 ? -8.0°
